{"data":{"norad_id":42965,"epoch":"2026-09-19T12:15:07.014240Z","epoch_age_seconds":99801,"freshness":"FRESH","line1":"1 42965U 17062A   26262.51049785 -.00000319  00000+0  00000+0 0  9991","line2":"2 42965  40.0464 342.2818 0750064 269.7658  70.7698  1.00273309 32747","mean_motion":1.00273309,"eccentricity":0.0750064,"inclination_deg":40.0464,"raan_deg":342.2818,"arg_perigee_deg":269.7658,"mean_anomaly_deg":70.7698,"bstar":0,"rev_number":3274,"period_min":1436.0750775663,"perigee_km":32623.575027473,"apogee_km":38948.760440685,"semimajor_km":42164.304734079,"source":"CELESTRAK","updated_at":"2026-09-20T09:00:46.838365Z"}}